Location: Asbacherhof
(48.8543°N, 10.7903°E)
Time: 16:00:05
(UTC+00:00)

Thor Agena Rocket - Pass Details

Date: 26 May 2022
Orbit: 759 x 807 km, 99.0° (Epoch: 07 July)

Event Time Altitude Azimuth Distance (km) Brightness Sun altitude
Rises 00:05:34 0° 18° (NNE) 3,323 8.4 -19.1°
Reaches altitude 10° 00:07:58 10° 23° (NNE) 2,392 7.3 -19.0°
Maximum altitude 00:13:09 54° 101° (E) 980 4.0 -18.8°
Enters shadow 00:15:38 29° 164° (SSE) 1,434 4.4 -18.7°
